カタログに戻る

COSMOS 1275 DEB

LostPO
NORAD 42227·DEBRIS·🇷🇺 Russia

打ち上げ Jun 4, 1981 から Plesetsk Cosmodrome

Loading…

次のパス (今後24時間)

TLE

古いSource: Space-Track

元期: Jul 17, 2025, 14:07 UTC

1 42227U 81053UT  25198.58822520  .00000950  00000-0  80821-3 0  9997
2 42227  82.9053 153.0851 0075133 271.9240  87.3318 13.85120417 41932

AllMySatでCOSMOS 1275 DEBをリアルタイム追跡

Download on the App Store